Regional Weather Roundup
Issued by NWS

Home | Current Version | Previous Version | Graphics & Text | Print | Product List | Glossary On
Versions: 1 2 3 4 5 6 7 8 9 10 11 12 13 14 15 16 17 18 19 20 21 22 23 24 25 26 27 28 29 30 31 32 33 34 35 36 37 38 39 40 41 42 43 44 45 46 47 48 49 50
000
ASUS43 KIND 280909
RWRIN

WEATHER ROUNDUP FOR INDIANA
NATIONAL WEATHER SERVICE INDIANAPOLIS IN
500 AM EDT SUN MAY 28 2017

NOTE: "FAIR" INDICATES FEW OR NO CLOUDS BELOW 12,000 FEET WITH NO
SIGNIFICANT WEATHER AND/OR OBSTRUCTIONS TO VISIBILITY.

* - STATION DOES NOT REPORT WEATHER SUCH AS PRECIPITATION OR FOG.

+ - STATION NOT QUALITY CONTROLLED BY THE NATIONAL WEATHER SERVICE.
    USE DATA WITH CAUTION...ESPECIALLY DEWPOINT AND RELATIVE
    HUMIDITY OBSERVATIONS.

INZ001>003-010>013-019-020-281000-
NORTHWEST INDIANA

CITY           SKY/WX    TMP DP  RH WIND       PRES   REMARKS
GARY /AIRPORT/ PTCLDY    55  54  98 CALM      29.76F FOG
KNOX *+          N/A     57  57 100 CALM      29.76F VSB 1/2
LA PORTE +     CLOUDY    57  57  99 CALM      29.78F FOG
MICHIGAN CITY+ FOG       54  54 100 CALM      29.77F VSB 3/4
MONTICELLO +   MOCLDY    61  60  96 CALM      29.74F FOG
RENSSELAER +   CLOUDY    59  55  88 NE5       29.74F FOG
VALPARAISO     CLOUDY    59  58  96 NE5       29.76F FOG

$$

LMZ046-743>745-281000-
SOUTHERN LAKE MICHIGAN

STATION/POSITION TIME  TEMP    WIND        PRES    WAVE
                       AIR SEA DIR/SP/G            HT
                 (UTC) (F)     (DEG/KT/KT) (MB)    (FT)
BURNS HARBOR     0840   67     140/  8/ 12 1008.8F
MICHIGAN CITY    0840   60     120/  5/  6   N/A
5NW MICH CITY    0900   58 55   90/  4/  4   N/A     0

$$

INZ004-005-014>016-021>024-281000-
NORTH CENTRAL INDIANA

CITY           SKY/WX    TMP DP  RH WIND       PRES   REMARKS
GOSHEN         CLOUDY    58  54  86 CALM      29.79F
LOGANSPORT +   CLOUDY    61  59  94 NE5       29.76F
PERU/GRISSOM   MOCLDY    60  60 100 E6        29.75F
ROCHESTER +    CLOUDY    63  59  88 CALM      29.77F
SOUTH BEND     CLOUDY    59  58  96 CALM      29.78F FOG
WARSAW +       CLOUDY    59  55  88 CALM      29.78F

$$

INZ006>009-017-018-025>027-281000-
NORTHEAST INDIANA

CITY           SKY/WX    TMP DP  RH WIND       PRES   REMARKS
ANGOLA *+      CLEAR     55  45  67 CALM      29.80F
AUBURN +       MOCLDY    55  52  88 NE5       29.80F
FORT WAYNE     CLOUDY    59  54  83 NE6       29.78F
HUNTINGTON +   MOCLDY    59  57  96 CALM      29.77F
KENDALLVILLE + CLOUDY    58  54  88 E5        29.80F

$$

INZ028-029-035-036-043>045-051>053-281000-
WEST CENTRAL INDIANA

CITY           SKY/WX    TMP DP  RH WIND       PRES   REMARKS
CRAWFORDSVL +  CLOUDY   -22 -22 100 CALM      29.73F FOG
GREENCASTLE +  MOCLDY    61  61 100 CALM      29.74F FOG
LAFAYETTE      CLOUDY    58  58 100 CALM      29.73F FOG
TERRE HAUTE    CLOUDY    65  62  90 S5        29.73F

$$

INZ030>032-037>040-046>048-054>057-064-065-281000-
CENTRAL INDIANA

CITY           SKY/WX    TMP DP  RH WIND       PRES   REMARKS
CP ATTERBURY + CLOUDY    63  61  94 SE5       29.75F
FRANKFORT +    CLOUDY    64  62  95 E5        29.75F FOG
GREENWOOD *+   CLOUDY    65  63  92 S5        29.76F
INDIANAPOLIS   CLOUDY    64  62  93 SE5       29.73F
-EAGLE CREEK   MOCLDY    64  61  90 CALM      29.73F
KOKOMO +       MOCLDY    61  60  97 E5        29.76F
MARION +       CLOUDY    61  59  94 NE5       29.77F
MT COMFORT *+    N/A    N/A N/A N/A MISG        N/A
SHELBYVILLE    MOCLDY    66  61  84 S8        29.74F
ZIONSVILLE +   MOCLDY    62  61  97 E3        29.75F FOG

$$

INZ033-034-041-042-049-050-058-059-281000-
EAST CENTRAL INDIANA

CITY           SKY/WX    TMP DP  RH WIND       PRES   REMARKS
MUNCIE         CLOUDY    63  61  93 CALM      29.76F
RICHMOND +     CLOUDY    61  61 100 CALM      29.79R FOG

$$

INZ060-061-067>069-081>083-085>088-281000-
SOUTHWEST INDIANA

CITY           SKY/WX    TMP DP  RH WIND       PRES   REMARKS
EVANSVILLE     CLOUDY    67  60  78 S9        29.76F
HUNTINGBURG *+ CLOUDY    65  61  87 S13       29.75F
WASHINGTON +   CLOUDY    64  58  80 S3        29.74F

$$

INZ062-063-066-070>080-084-089>092-281000-
SOUTH CENTRAL AND SOUTHEAST INDIANA

CITY           SKY/WX    TMP DP  RH WIND       PRES   REMARKS
BEDFORD +      CLOUDY    63  61  94 CALM      29.74F
BLOOMINGTON    CLOUDY    64  60  87 SE3       29.74F
MADISON *+     CLOUDY    63  61  94 S5        29.82R
NORTH VERNON + CLOUDY    63  61  94 S6        29.78S
SEYMOUR +      CLOUDY    66  63  88 SE5       29.76F

$$





USA.gov is the U.S. government's official web portal to all federal, state and local government web resources and services.